SCP
0 0 0 0 0 0 0 0 0 0 0 0 0 0 -0 -0 -0 -0 -0 -0 -0 -0 0 -0 0 -0 -0
0 0 0 0 0 0 0 0 0 0 0 0 0 0 0 -0 -0 -0 -0 -0 -0 -0 -0 -0 -0 -0 0
0 0 0 0 0 0 0 0 0 0 0 0 0 0 0 0 -0 -0 -0 -0 -0 -0 -0 -0 -0 -0 0
0 0 0 0 0 0 0 0 0 0 0 0 0 0 0 0 0 0 0 0 0 0 -0 -0 0 0 0
0 0 0 0 0 0 0 0 0 0 0 0 0 0 0 0 0 0 0 0 0 0 0 0 0 0 0
0 0 0 0 0 0 0 0 0 0 0 0 0 0 0 0 0 0 0 0 -0 0 0 0 0 0 0
0 0 0 0 0 0 0 0 0 0 0 0 0 0 0 0 0 0 0 0 0 0 0 0 0 0 0
0 0 0 0 0 0 0 0 0 0 0 0 0 0 0 0 0 0 0 0 0 0 0 0 0 0 0
0 0 0 0 0 0 0 0 0 0 0 0 0 0 0 0 0 0 0 0 0 0 0 0 0 0 0
0 0 0 0 0 0 0 0 0 0 0 0 0 0 0 0 0 0 0 0 0 0 0 0 0 0 0
0 0 0 0 0 0 0 0 0 0 0 0 0 0 0 0 0 0 0 0 0 0 0 0 0 0 0
-0 -0 0 0 0 0 0 0 0 0 0 0 0 0 0 0 0 0 0 0 0 0 0 0 0 0 0
0 -0 -0 -0 -0 0 0 0 0 0 0 0 0 0 0 0 0 0 0 0 0 0 0 0 0 0 0
0 0 0 -0 0 0 0 0 0 0 0 0 0 0 0 0 0 0 0 0 0 0 0 0 0 0 0
0 0 0 0 0 0 0 0 0 0 0 0 0 0 0 0 0 0 0 0 0 0 0 0 0 0 0
0 0 0 0 0 0 0 0 0 0 0 0 0 0 0 0 0 0 0 0 0 0 0 0 0 0 0
Wind_Speed_500mb
33 36 32 23 24 27 27 29 23 25 18 17 30 26 22 21 16 21 21 21 21 24 24 24 26 25 15
29 32 27 28 29 31 28 24 20 24 16 15 24 24 20 17 14 17 21 20 16 19 22 25 22 15 19
37 38 27 33 33 30 23 20 19 25 22 22 20 22 18 16 14 20 21 19 16 13 15 19 21 17 9
41 39 31 31 33 24 23 19 19 26 27 22 18 17 14 16 16 15 17 15 15 9 8 16 15 9 5
32 39 34 29 29 22 25 23 13 24 26 20 17 14 10 13 20 22 19 12 15 8 5 5 9 8 6
35 37 34 34 31 29 26 33 25 18 16 21 16 9 12 13 14 22 18 18 4 7 2 0 10 9 9
39 40 37 35 35 34 32 31 33 30 21 23 25 18 15 16 12 12 17 14 14 13 13 15 12 8 11
41 38 32 33 35 32 30 30 28 27 23 31 27 21 22 17 15 21 20 21 17 17 18 15 17 19 22
38 35 38 34 31 33 30 31 31 28 23 36 34 26 23 27 27 19 19 17 19 19 19 17 21 27 27
42 38 42 38 28 29 31 26 24 26 29 26 29 33 26 28 30 30 29 28 26 22 19 18 25 27 26
44 11 39 34 33 30 26 25 21 20 22 23 24 28 29 29 29 28 29 28 26 28 27 26 32 32 32
6 10 9 40 30 35 30 27 28 25 23 21 23 24 27 31 30 31 32 29 29 28 30 34 31 37 41
15 5 4 23 14 10 20 38 38 34 33 28 22 26 27 32 31 35 35 33 31 34 34 35 38 41 37
27 30 25 23 9 22 24 20 37 40 43 38 30 29 32 33 34 34 34 34 35 34 31 30 25 27 17
19 20 32 26 19 12 23 22 17 36 34 44 41 37 47 46 40 38 38 38 38 37 29 25 12 7 19
19 22 24 28 37 33 34 33 26 27 35 39 37 48 46 51 49 40 39 36 42 42 37 35 38 39 28
Wind_Direction_500mb
168 170 170 176 165 157 153 156 162 158 136 142 175 165 157 164 142 136 125 113 107 105 97 93 105 112 100
181 173 159 156 153 158 163 165 159 153 140 126 172 171 168 165 153 144 137 128 113 107 100 90 92 76 99
169 156 147 155 156 159 166 162 164 164 146 133 146 167 169 165 170 162 150 145 141 116 104 95 97 88 111
172 165 155 155 162 170 164 159 165 170 160 145 148 169 175 179 186 184 159 163 156 133 118 100 101 114 117
187 172 167 166 163 166 159 161 172 179 178 160 166 162 175 186 180 187 177 179 166 175 146 109 155 146 177
187 180 170 175 171 173 172 161 192 187 184 175 180 185 167 162 185 179 183 162 173 204 183 212 238 218 218
190 179 178 181 179 183 185 182 193 201 202 181 172 185 168 183 213 183 193 190 205 180 222 236 259 245 268
201 189 177 191 198 199 200 193 189 199 205 193 197 185 176 185 196 198 206 217 220 215 237 242 239 229 239
197 185 182 193 192 196 199 205 202 212 208 202 194 194 209 196 190 196 211 210 227 229 230 244 245 249 249
193 196 192 191 196 199 209 213 213 208 211 221 213 204 213 221 214 218 224 225 222 226 232 246 255 262 257
330 304 195 210 198 205 214 226 230 220 220 225 208 205 211 231 226 231 235 237 241 244 251 244 256 273 277
351 348 333 217 225 214 233 226 243 239 238 233 230 225 211 229 225 230 239 243 249 253 257 260 269 279 286
215 346 316 283 320 242 266 252 239 242 244 233 247 240 240 230 239 234 238 246 245 251 260 273 277 284 293
213 231 223 224 275 282 303 261 254 247 247 239 232 242 245 249 246 232 243 242 248 252 258 268 290 306 306
232 231 240 245 242 240 250 261 282 258 252 234 243 242 245 242 245 241 241 245 250 256 260 254 267 282 309
271 241 233 223 223 238 244 250 250 258 247 232 237 237 239 244 241 248 252 254 244 252 262 257 261 268 278
Wind_Speed_850mb
33 36 32 23 24 27 27 29 23 25 18 17 30 26 22 21 16 21 21 21 21 24 24 24 26 25 15
29 32 27 28 29 31 28 24 20 24 16 15 24 24 20 17 14 17 21 20 16 19 22 25 22 15 19
37 38 27 33 33 30 23 20 19 25 22 22 20 22 18 16 14 20 21 19 16 13 15 19 21 17 9
41 39 31 31 33 24 23 19 19 26 27 22 18 17 14 16 16 15 17 15 15 9 8 16 15 9 5
32 39 34 29 29 22 25 23 13 24 26 20 17 14 10 13 20 22 19 12 15 8 5 5 9 8 6
35 37 34 34 31 29 26 33 25 18 16 21 16 9 12 13 14 22 18 18 4 7 2 0 10 9 9
39 40 37 35 35 34 32 31 33 30 21 23 25 18 15 16 12 12 17 14 14 13 13 15 12 8 11
41 38 32 33 35 32 30 30 28 27 23 31 27 21 22 17 15 21 20 21 17 17 18 15 17 19 22
38 35 38 34 31 33 30 31 31 28 23 36 34 26 23 27 27 19 19 17 19 19 19 17 21 27 27
42 38 42 38 28 29 31 26 24 26 29 26 29 33 26 28 30 30 29 28 26 22 19 18 25 27 26
44 11 39 34 33 30 26 25 21 20 22 23 24 28 29 29 29 28 29 28 26 28 27 26 32 32 32
6 10 9 40 30 35 30 27 28 25 23 21 23 24 27 31 30 31 32 29 29 28 30 34 31 37 41
15 5 4 23 14 10 20 38 38 34 33 28 22 26 27 32 31 35 35 33 31 34 34 35 38 41 37
27 30 25 23 9 22 24 20 37 40 43 38 30 29 32 33 34 34 34 34 35 34 31 30 25 27 17
19 20 32 26 19 12 23 22 17 36 34 44 41 37 47 46 40 38 38 38 38 37 29 25 12 7 19
19 22 24 28 37 33 34 33 26 27 35 39 37 48 46 51 49 40 39 36 42 42 37 35 38 39 28
Wind_Direction_850mb
168 170 170 176 165 157 153 156 162 158 136 142 175 165 157 164 142 136 125 113 107 105 97 93 105 112 100
181 173 159 156 153 158 163 165 159 153 140 126 172 171 168 165 153 144 137 128 113 107 100 90 92 76 99
169 156 147 155 156 159 166 162 164 164 146 133 146 167 169 165 170 162 150 145 141 116 104 95 97 88 111
172 165 155 155 162 170 164 159 165 170 160 145 148 169 175 179 186 184 159 163 156 133 118 100 101 114 117
187 172 167 166 163 166 159 161 172 179 178 160 166 162 175 186 180 187 177 179 166 175 146 109 155 146 177
187 180 170 175 171 173 172 161 192 187 184 175 180 185 167 162 185 179 183 162 173 204 183 212 238 218 218
190 179 178 181 179 183 185 182 193 201 202 181 172 185 168 183 213 183 193 190 205 180 222 236 259 245 268
201 189 177 191 198 199 200 193 189 199 205 193 197 185 176 185 196 198 206 217 220 215 237 242 239 229 239
197 185 182 193 192 196 199 205 202 212 208 202 194 194 209 196 190 196 211 210 227 229 230 244 245 249 249
193 196 192 191 196 199 209 213 213 208 211 221 213 204 213 221 214 218 224 225 222 226 232 246 255 262 257
330 304 195 210 198 205 214 226 230 220 220 225 208 205 211 231 226 231 235 237 241 244 251 244 256 273 277
351 348 333 217 225 214 233 226 243 239 238 233 230 225 211 229 225 230 239 243 249 253 257 260 269 279 286
215 346 316 283 320 242 266 252 239 242 244 233 247 240 240 230 239 234 238 246 245 251 260 273 277 284 293
213 231 223 224 275 282 303 261 254 247 247 239 232 242 245 249 246 232 243 242 248 252 258 268 290 306 306
232 231 240 245 242 240 250 261 282 258 252 234 243 242 245 242 245 241 241 245 250 256 260 254 267 282 309
271 241 233 223 223 238 244 250 250 258 247 232 237 237 239 244 241 248 252 254 244 252 262 257 261 268 278